Location: Unspecified
(0.0000°N, 0.0000°E)
Time: 05:57:21
(UTC+00:00)

AAUSAT CUBESAT 2 - Pass Details

Date: 21 July 2020
Orbit: 574 x 589 km, 97.5° (Epoch: 13 August)

Event Time Altitude Azimuth Distance (km) Brightness Sun altitude
Rises 05:07:41 0° 31° (NNE) 2,800 ? -13.8°
Reaches altitude 10° 05:10:05 10° 43° (NE) 1,901 ? -13.2°
Maximum altitude 05:13:35 27° 101° (ESE) 1,133 ? -12.4°
Drops below altitude 10° 05:17:06 10° 160° (SSE) 1,902 ? -11.6°
Sets 05:19:29 0° 172° (S) 2,801 ? -11.0°
